Retour au catalogue

FENGYUN 1C DEB

ActifSSO
NORAD 30023·DEBRIS·🇨🇳 China

Lancé May 10, 1999 depuis Taiyuan Satellite Launch Center

Loading…

Prochains Passages (prochaines 24 heures)

TLE

FraisSource: Space-Track

Époque: Sep 14, 2026, 20:32 UTC

1 30023U 99025MY  26257.85559635  .00000426  00000-0  25489-3 0  9994
2 30023  99.2766 106.2533 0046822  13.1230   2.2316 14.12226560 10937

Suivez FENGYUN 1C DEB en temps réel avec AllMySat

Download on the App Store